Showing default

TRANSIT 5E 3, 705

Orbit data source: Space-Track

TRANSIT 5E 3, 705 is a payload satellite owned by USN BuWeps (US) in LEO that was launched on Thu, 05 Dec 1963 UTC via a THOR ABLESTAR launch vehicle from the Air Force Western Test Range (AFWTR). Payload-class satellites include a variety of spacecraft equipped with specific instruments for various scientific and technological missions. These include communications satellites like Starlink; space stations such as the ISS; scientific satellites like the Hubble; Earth observation satellites from companies like Planet Labs, Umbra, and HawkEye 360; GPS; miniature CubeSats for education and research; and military/defense satellites.

Loading next visibility...
Identifier
705, 1963-049C
Orbit
LEO
Country
Flag of USUS
Related business
Manufacturer
APL
Mission
Spacecraft
Bus & Motor
TRANSIT 5, Unknown motor
Mass
52 kg wet, 52 kg dry
Launch date (UTC)
1963-12-05 (62 years ago)
Launch vehicle
THOR ABLESTAR
Launch site
Air Force Western Test Range (AFWTR)
Object type
Payload
Rocket body
Debris
Shape & HBR
Unknown
Radar Cross Section
Large (>1 m²)

Expand to show TLE details & history
Last TLE update: 17 hours ago

TLE from 17 hours ago
0 TRANSIT 5E 3
1 00705U 63049C   25301.65898561  .00000128  00000-0  19286-3 0  9993
2 00705  89.9197  72.2558 0033305 198.3592 224.9012 13.47639305 40912
Epoch: 2025-10-28T15:48Z
TLE epoch observation values (Epoch: 2025-10-28T15:48:56.356Z)
Latitude
63.07661°
Longitude
157.93499°
Altitude
1,109.522 km
Speed
7.295 km/s
True Right ascension
04h 49m 39s
True Declination
62° 56' 39"
Sunlit
Object was in full shadow at epoch
Visualization orbit readout
Latitude
Unknown
Longitude
Unknown
Altitude
Unknown
Speed
Unknown
Apparent Right ascension
Unknown
Apparent Declination
Unknown
Sunlit
N/A
Visualization observer readout
Local Sidereal Time
04:07:19
Azimuth
Unknown
Elevation
Unknown
Doppler factor
Unknown
Orbital elements
Apogee altitude
1,102.843 km
Perigee altitude
1,053.177 km
Semi-major axis
7,456.147 km
Eccentricity
0.00333
Inclination
89.9197°
RAAN
72.2558°
Arg. of periapsis
198.3592°
True anomaly
224.63259°
Mean anomaly
224.9012°
Eccentric anomaly
224.76682°
Mean motion
3.3711 °/min
Orbital period
106.79 mins
BSTAR
0.00019286
Loading maneuver chart data...
Computing Atmospheric mass density...
Loading historical data...
Loading historical data...
Loading historical data...
Loading historical data...
Loading historical data...
Loading historical data...
Loading historical data...

Documentation

Showing up to 5 results
|